Location: Albert Place
(40.7505°N, 111.9230°W)
Time: 23:01:52
(UTC+00:00)

ATLAS 2AS CENTAUR R/B - Pass Details

Date: 13 December 2025
Orbit: 1049 x 1162 km, 63.7° (Epoch: 14 January)

Event Time Altitude Azimuth Distance (km) Brightness Sun altitude
Rises 13:08:09 0° 214° (SSW) 3,949 5.5 -17.4°
Reaches altitude 10° 13:10:52 10° 215° (SW) 2,978 4.8 -16.9°
Maximum altitude 13:17:57 85° 303° (WNW) 1,102 2.7 -15.6°
Drops below altitude 10° 13:24:53 10° 33° (NNE) 2,912 5.2 -14.4°
Sets 13:27:30 0° 34° (NE) 3,857 5.8 -13.9°
